User: anonymous   Login
Location: Cincinnati Observatory Center
(39.1389°N, 84.4225°W)
Time: 23:41:22
(UTC-04:00)
Language:

Hubble Space Telescope - Orbit

View from above orbital plane
View from above orbital plane
View from above satellite
View from above satellite

Ground track
Ground track

The orbit data is extracted from the following two-line orbital elements,

1 20580U 90037B   17117.94700056 +.00000756 +00000-0 +35772-4 0  9998
2 20580 028.4705 339.4922 0002693 357.0910 111.3947 15.08748200282609
Epoch (UTC): 27 April 2017 22:43:40
Eccentricity: 0.0002693
inclination: 28.4705°
perigee height: 538 km
apogee height: 542 km
right ascension of ascending node: 339.4922°
argument of perigee: 357.0910°
revolutions per day: 15.08748200
mean anomaly at epoch: 111.3947°
orbit number at epoch: 28260

The dashed part of the orbit path shows where the satellite is in the earth's shadow,  

DLR